Tracking 22081 objects as of 4-Dec-2020
HD Live streaming from Space Station
objects crossing your sky now

CZ-3B R/B

Track CZ-3B R/B now!
10-day predictions


NORAD ID: 43110
Int'l Code: 2018-003D
Perigee: 376.5 km
Apogee: 17,629.7 km
Inclination: 54.9 °
Period: 316.2 minutes
Semi major axis: 15374 km
RCS: Unknown
Launch date: January 11, 2018
Source: People's Republic of China (PRC)
Launch site: Xichang Space Center, China (XSC)

Note: This is a ROCKET BODY
aabbcc
Your satellite tracking list
Your tracking list is empty




NASA's NSSDC Master Catalog

Two Line Element Set (TLE):
1 43110U 18003D   20337.84342135  .00000673  00000-0  37161-3 0  9993
2 43110  54.8864 167.4549 5611111 150.8168 257.8777  4.55424856 47701
Source of the keplerian elements: AFSPC